• In Uzbekistan
  • List of Countries
  • For 7 days
  • Water Temperature
  • Weather Map
  • Weather Widgets
  • user-avatar
    Login

    Hourly Weather Armawir

    Today, 29 January, Wednesday

    Time Temperature Precipitation Wind Pressure Humidity
    00:00 0°C° 0 mm 0 mps 688 mmHg 47%
    01:00 0°C° 0 mm 0 mps 687 mmHg 48%
    02:00 -1°C° 0 mm 0 mps 687 mmHg 50%
    03:00 -1°C° 0 mm 0 mps 687 mmHg 51%
    04:00 -1°C° 0 mm 0 mps 687 mmHg 52%
    05:00 -2°C° 0 mm 0 mps 686 mmHg 53%
    06:00 -2°C° 0 mm 0 mps 686 mmHg 54%
    07:00 -1°C° 0 mm 0 mps 686 mmHg 51%
    08:00 0°C° 0 mm 0 mps 687 mmHg 47%
    09:00 +1°C° 0 mm 0 mps 687 mmHg 44%
    10:00 +2°C° 0 mm 0 mps 687 mmHg 42%
    11:00 +3°C° 0 mm 0 mps 686 mmHg 40%
    12:00 +4°C° 0 mm 0 mps 686 mmHg 39%
    13:00 +5°C° 0 mm 1 mps 686 mmHg 38%
    14:00 +5°C° 0 mm 1 mps 686 mmHg 38%
    15:00 +6°C° 0 mm 1 mps 685 mmHg 37%
    16:00 +5°C° 0 mm 1 mps 686 mmHg 41%
    17:00 +4°C° 0 mm 1 mps 686 mmHg 45%
    18:00 +3°C° 0 mm 1 mps 686 mmHg 49%
    19:00 +2°C° 0 mm 1 mps 686 mmHg 51%
    20:00 +1°C° 0 mm 1 mps 687 mmHg 53%
    21:00 +1°C° 0 mm 1 mps 687 mmHg 55%
    22:00 +1°C° 0 mm 1 mps 687 mmHg 55%
    23:00 0°C° 0 mm 1 mps 688 mmHg 56%

    Tomorrow, 30 January, Thursday

    Time Temperature Precipitation Wind Pressure Humidity
    00:00 0°C° 0 mm 1 mps 688 mmHg 57%
    01:00 -2°C° 0 mm 0 mps 688 mmHg 58%
    02:00 -2°C° 0 mm 0 mps 688 mmHg 60%
    03:00 -2°C° 0 mm 0 mps 687 mmHg 62%
    04:00 -2°C° 0 mm 0 mps 687 mmHg 63%
    05:00 -3°C° 0 mm 0 mps 688 mmHg 65%
    06:00 -2°C° 0 mm 1 mps 688 mmHg 66%
    07:00 -2°C° 0 mm 0 mps 688 mmHg 61%
    08:00 0°C° 0 mm 0 mps 689 mmHg 57%
    09:00 +1°C° 0 mm 0 mps 689 mmHg 52%
    10:00 +3°C° 0 mm 1 mps 689 mmHg 50%
    11:00 +4°C° 0 mm 1 mps 688 mmHg 48%
    12:00 +5°C° 0 mm 1 mps 688 mmHg 46%
    13:00 +5°C° 0 mm 1 mps 687 mmHg 46%
    14:00 +6°C° 0 mm 1 mps 687 mmHg 45%
    15:00 +5°C° 0 mm 2 mps 686 mmHg 44%
    16:00 +4°C° 0 mm 2 mps 686 mmHg 48%
    17:00 +3°C° 0 mm 2 mps 686 mmHg 51%
    18:00 +2°C° 0 mm 2 mps 686 mmHg 54%
    19:00 +2°C° 0 mm 2 mps 686 mmHg 55%
    20:00 +2°C° 0 mm 2 mps 686 mmHg 55%
    21:00 +2°C° 0 mm 2 mps 686 mmHg 56%
    22:00 +1°C° 0 mm 2 mps 686 mmHg 57%
    23:00 +2°C° 0 mm 1 mps 685 mmHg 58%

    Day after tomorrow, 31 January, Friday

    Time Temperature Precipitation Wind Pressure Humidity
    00:00 +2°C° 0 mm 1 mps 685 mmHg 60%
    01:00 +1°C° 0 mm 2 mps 684 mmHg 61%
    02:00 +1°C° 0 mm 2 mps 684 mmHg 62%
    03:00 +1°C° 0 mm 2 mps 684 mmHg 63%
    04:00 +1°C° 0 mm 1 mps 683 mmHg 66%
    05:00 +1°C° 0 mm 1 mps 682 mmHg 68%
    06:00 0°C° 0 mm 1 mps 682 mmHg 71%
    07:00 +1°C° 0 mm 1 mps 682 mmHg 68%
    08:00 +1°C° 0 mm 2 mps 682 mmHg 64%
    09:00 +2°C° 0 mm 2 mps 682 mmHg 61%
    10:00 +3°C° 0 mm 2 mps 681 mmHg 59%
    11:00 +3°C° 0 mm 3 mps 681 mmHg 56%
    12:00 +4°C° 0 mm 3 mps 680 mmHg 54%
    13:00 +4°C° 0 mm 4 mps 680 mmHg 54%
    14:00 +4°C° 0 mm 4 mps 679 mmHg 53%
    15:00 +5°C° 0 mm 4 mps 679 mmHg 53%
    16:00 +4°C° 0.1 mm 4 mps 679 mmHg 59%
    17:00 +3°C° 0.1 mm 4 mps 679 mmHg 65%
    18:00 +1°C° 0.1 mm 4 mps 679 mmHg 71%
    19:00 +1°C° 0.3 mm 4 mps 679 mmHg 74%
    20:00 +1°C° 0.3 mm 4 mps 679 mmHg 76%
    21:00 0°C° 0.3 mm 5 mps 679 mmHg 79%
    22:00 0°C° 0.2 mm 4 mps 679 mmHg 75%
    23:00 0°C° 0.2 mm 4 mps 679 mmHg 72%

    1 February, Saturday

    Time Temperature Precipitation Wind Pressure Humidity
    00:00 -1°C° 0.2 mm 4 mps 679 mmHg 68%
    01:00 -1°C° 0.3 mm 4 mps 680 mmHg 67%
    02:00 -1°C° 0.3 mm 4 mps 680 mmHg 65%
    03:00 -1°C° 0.3 mm 4 mps 680 mmHg 64%
    04:00 -2°C° 0.1 mm 4 mps 680 mmHg 63%
    05:00 -1°C° 0.1 mm 3 mps 681 mmHg 61%
    06:00 -2°C° 0.1 mm 3 mps 681 mmHg 60%
    07:00 -2°C° 0 mm 3 mps 682 mmHg 58%
    08:00 -1°C° 0 mm 3 mps 683 mmHg 56%
    09:00 -2°C° 0 mm 4 mps 683 mmHg 53%
    10:00 0°C° 0 mm 3 mps 683 mmHg 50%
    11:00 +1°C° 0 mm 3 mps 683 mmHg 47%
    12:00 +2°C° 0 mm 3 mps 683 mmHg 44%
    13:00 +2°C° 0 mm 3 mps 684 mmHg 42%
    14:00 +2°C° 0 mm 3 mps 684 mmHg 40%
    15:00 +4°C° 0 mm 2 mps 684 mmHg 38%
    16:00 +2°C° 0 mm 2 mps 684 mmHg 42%
    17:00 +1°C° 0 mm 2 mps 685 mmHg 45%
    18:00 -2°C° 0 mm 2 mps 685 mmHg 49%
    19:00 -2°C° 0 mm 2 mps 686 mmHg 48%
    20:00 -3°C° 0 mm 2 mps 686 mmHg 47%
    21:00 -1°C° 0 mm 1 mps 687 mmHg 46%
    22:00 -2°C° 0 mm 1 mps 687 mmHg 47%
    23:00 -2°C° 0 mm 1 mps 687 mmHg 48%

    2 February, Sunday

    Time Temperature Precipitation Wind Pressure Humidity
    00:00 -2°C° 0 mm 1 mps 687 mmHg 49%
    01:00 -2°C° 0 mm 1 mps 687 mmHg 50%
    02:00 -3°C° 0 mm 1 mps 688 mmHg 51%
    03:00 -3°C° 0 mm 1 mps 688 mmHg 52%
    04:00 -3°C° 0 mm 1 mps 688 mmHg 52%
    05:00 -3°C° 0 mm 1 mps 688 mmHg 53%
    06:00 -3°C° 0 mm 1 mps 688 mmHg 54%
    07:00 -3°C° 0 mm 1 mps 689 mmHg 51%
    08:00 -2°C° 0 mm 1 mps 689 mmHg 48%
    09:00 -1°C° 0 mm 1 mps 690 mmHg 45%
    10:00 0°C° 0 mm 1 mps 690 mmHg 43%
    11:00 +1°C° 0 mm 1 mps 689 mmHg 42%
    12:00 +2°C° 0 mm 1 mps 689 mmHg 40%
    13:00 +2°C° 0 mm 1 mps 689 mmHg 39%
    14:00 +3°C° 0 mm 1 mps 689 mmHg 39%
    15:00 +2°C° 0 mm 0 mps 689 mmHg 39%
    16:00 +2°C° 0 mm 1 mps 689 mmHg 43%
    17:00 +1°C° 0 mm 1 mps 690 mmHg 47%
    18:00 0°C° 0 mm 1 mps 690 mmHg 51%
    19:00 -1°C° 0 mm 1 mps 690 mmHg 52%
    20:00 -1°C° 0 mm 1 mps 691 mmHg 53%
    21:00 -2°C° 0 mm 1 mps 691 mmHg 54%
    22:00 -2°C° 0 mm 1 mps 691 mmHg 55%
    23:00 -2°C° 0 mm 1 mps 691 mmHg 55%

    3 February, Monday

    Time Temperature Precipitation Wind Pressure Humidity
    00:00 -3°C° 0 mm 1 mps 691 mmHg 56%
    01:00 -3°C° 0 mm 1 mps 691 mmHg 56%
    02:00 -3°C° 0 mm 1 mps 691 mmHg 57%
    03:00 -3°C° 0 mm 1 mps 691 mmHg 57%
    04:00 -4°C° 0 mm 1 mps 691 mmHg 58%
    05:00 -4°C° 0 mm 1 mps 691 mmHg 58%
    06:00 -4°C° 0 mm 1 mps 690 mmHg 59%
    07:00 -3°C° 0 mm 1 mps 690 mmHg 55%
    08:00 -2°C° 0 mm 1 mps 691 mmHg 52%
    09:00 -1°C° 0 mm 1 mps 691 mmHg 48%
    10:00 0°C° 0 mm 1 mps 690 mmHg 46%
    11:00 +1°C° 0 mm 1 mps 690 mmHg 44%
    12:00 +1°C° 0 mm 0 mps 689 mmHg 42%
    13:00 +1°C° 0 mm 0 mps 689 mmHg 41%
    14:00 +2°C° 0 mm 1 mps 688 mmHg 40%
    15:00 +3°C° 0 mm 1 mps 688 mmHg 39%
    16:00 +2°C° 0 mm 1 mps 688 mmHg 43%
    17:00 +1°C° 0 mm 1 mps 688 mmHg 46%
    18:00 0°C° 0 mm 1 mps 688 mmHg 50%
    19:00 -1°C° 0 mm 1 mps 688 mmHg 51%
    20:00 -1°C° 0 mm 1 mps 687 mmHg 52%
    21:00 -1°C° 0 mm 1 mps 687 mmHg 53%
    22:00 -2°C° 0 mm 1 mps 687 mmHg 54%
    23:00 -2°C° 0 mm 1 mps 687 mmHg 54%
    Show more